Regional Weather Roundup
Issued by NWS

Home | Current Version | Previous Version | Text Only | Print | Product List | Glossary On
Versions: 1 2 3 4 5 6 7 8 9 10 11 12 13 14 15 16 17 18 19 20 21 22 23 24 25 26 27 28 29 30 31 32 33 34 35 36 37 38 39 40 41 42 43 44 45 46 47 48 49 50
045
ASUS42 KKEY 121610
RWRKEY

FLORIDA REGIONAL WEATHER ROUNDUP FOR THE FLORIDA KEYS
NATIONAL WEATHER SERVICE KEY WEST FLORIDA
1100 AM EST TUE DEC 12 2017

...SOUTH FLORIDA AND THE KEYS...

CITY           SKY/WX    TMP DP  RH WIND       PRES   REMARKS
FORT MYERS     SUNNY     70  57  63 SW10      30.07F
SW REGIONAL AP SUNNY     68  57  68 SW10      30.08F
NAPLES         SUNNY     68  54  60 S8        30.09F
MIAMI          MOSUNNY   68  46  45 N6        30.10F
WEST KENDALL   SUNNY     67  45  45 NW7       30.10F
HOMESTEAD      SUNNY     67  47  48 NW8       30.10F
MARATHON       SUNNY     68  51  54 NW5       30.12S
KEY WEST INTL  MOSUNNY   67  54  63 S6        30.12F

...INTERNATIONAL WEATHER...

CITY           SKY/WX    TMP DP  RH WIND       PRES   REMARKS
NASSAU BAHAMAS MOSUNNY   75  52  43 W8        30.05F
CANCUN MEXICO  PTSUNNY   73  63  68 N7        30.18F
COZUMEL MEXICO PTSUNNY   73  63  68 NW14      30.16F

ADJACENT COASTAL WATERS...

STATION/POSITION TIME  SKY/WX   TEMP    WIND        PRES    WAVE
                                AIR SEA DIR/SP/G            HT/PER
                 (UTC)          (F)     (DEG/KT/KT) (MB)    (FT/S)
PULASKI SHOAL LI 1600            71     310/ 12/ 14 1019.6F
SAND KEY         1550            68                 1020.5F
LONG KEY         NOT AVBL
MOLASSES REEF    1600            62 75  350/ 12/ 14 1019.8F
FOWEY ROCKS      1600            63 76  310/ 10/ 11 1019.8F
Buoy 42097       1530               77                N/A     2/ 3

$$




USA.gov is the U.S. government's official web portal to all federal, state and local government web resources and services.